Weather History for Monroe, MI

Change the Weather History Date:

Friday, October 14, 2011

  Actual Average Record
Temperature  
Mean Temperature 56 °F -  
Max Temperature 60 °F 63 °F 84 °F (1975)
Min Temperature 53 °F 42 °F 30 °F (1993)
Degree Days  
Heating Degree Days 8    
Growing Degree Days 6 (Base 50)    
Moisture  
Dew Point 52 °F    
Average Humidity 84    
Maximum Humidity 100    
Minimum Humidity 45    
Precipitation  
Precipitation 0.00 in - - ()
Sea Level Pressure  
Sea Level Pressure 29.42 in    
Wind  
Wind Speed 10 mph (WSW)    
Max Wind Speed 23 mph    
Max Gust Speed 33 mph    
Visibility 9 miles    
Events Rain    
Averages and records for this station are not official NWS values.
T = Trace of Precipitation, MM = Missing Value Source: NWS Daily Summary

Daily Weather History Graph

Daily Weather History Graph

Search for Another Location

Airport:

Trip Planner

Search our weather history database for the weather conditions in past years. The results will help you decide how hot, cold, wet, or windy it might be!

Date:

Astronomy

Oct. 14, 2011 Rise Set
Actual Time 7:44 AM EDT 6:54 PM EDT
Civil Twilight 7:16 AM EDT 7:22 PM EDT
Nautical Twilight 6:44 AM EDT 7:54 PM EDT
Astronomical Twilight 6:11 AM EDT 8:26 PM EDT
Moon 8:03 PM EDT (10/14) 10:15 AM EDT (10/14)
Length of Visible Light 12h 05m
Length of Day
11h 09m
Waning Gibbous, 94% of the Moon is Illuminated
Oct 14
Waning Gibbous
Oct 19
Last Quarter
Oct 26
New
Nov 2
First Quarter
Nov 10
Full

Hourly Weather History & Observations

Time (EDT) Temp. Dew Point Humidity Pressure Visibility Wind Dir Wind Speed Gust Speed Precip Events Conditions
12:13 AM 60.8 °F 60.8 °F 100% 29.39 in 4.0 mi South 3.5 mph - N/A   Drizzle
12:33 AM 60.8 °F 60.8 °F 100% 29.38 in 4.0 mi South 3.5 mph - N/A   Light Drizzle
12:53 AM 60.8 °F 60.8 °F 100% 29.37 in 3.0 mi SSE 3.5 mph - N/A Rain Light Rain
1:13 AM 60.8 °F 60.8 °F 100% 29.36 in 4.0 mi South 4.6 mph - N/A   Overcast
1:33 AM 60.8 °F 60.8 °F 100% 29.35 in 4.0 mi SSW 3.5 mph - N/A   Overcast
1:53 AM 60.8 °F 60.8 °F 100% 29.35 in 3.0 mi SSW 6.9 mph - N/A Rain Heavy Rain
2:13 AM 60.8 °F 60.8 °F 100% 29.34 in 4.0 mi SSW 4.6 mph - N/A   Light Drizzle
2:33 AM 60.8 °F 60.8 °F 100% 29.34 in 4.0 mi WSW 8.1 mph - N/A   Overcast
2:53 AM 60.8 °F 60.8 °F 100% 29.34 in 10.0 mi West 13.8 mph - N/A   Overcast
3:14 AM 59.0 °F 59.0 °F 100% 29.34 in 10.0 mi West 15.0 mph - N/A   Overcast
3:34 AM 57.2 °F 57.2 °F 100% 29.34 in 10.0 mi WNW 13.8 mph 19.6 mph N/A   Overcast
3:54 AM 57.2 °F 57.2 °F 100% 29.34 in 10.0 mi WNW 9.2 mph - N/A Rain Light Rain
4:14 AM 57.2 °F 57.2 °F 100% 29.35 in 7.0 mi West 10.4 mph 18.4 mph N/A   Overcast
4:34 AM 55.4 °F 55.4 °F 100% 29.36 in 10.0 mi West 9.2 mph - N/A   Overcast
4:54 AM 55.4 °F 55.4 °F 100% 29.36 in 10.0 mi West 8.1 mph 16.1 mph N/A   Overcast
5:14 AM 55.4 °F 55.4 °F 100% 29.35 in 10.0 mi West 11.5 mph - N/A   Overcast
5:34 AM 57.2 °F 57.2 °F 100% 29.36 in 10.0 mi WSW 9.2 mph - N/A   Overcast
5:55 AM 57.2 °F 57.2 °F 100% 29.36 in 10.0 mi West 10.4 mph - N/A   Overcast
6:15 AM 57.2 °F 57.2 °F 100% 29.37 in 10.0 mi WSW 8.1 mph - N/A   Overcast
6:35 AM 57.2 °F 57.2 °F 100% 29.37 in 10.0 mi WSW 11.5 mph - N/A   Overcast
6:55 AM 57.2 °F 57.2 °F 100% 29.38 in 10.0 mi West 12.7 mph 17.3 mph N/A   Overcast
7:15 AM 55.4 °F 55.4 °F 100% 29.38 in 10.0 mi WSW 11.5 mph 17.3 mph N/A   Overcast
7:30 AM 55.4 °F 55.4 °F 100% 29.39 in 10.0 mi WSW 8.1 mph - N/A   Mostly Cloudy
7:50 AM 55.4 °F 55.4 °F 100% 29.39 in 10.0 mi WSW 9.2 mph - N/A   Overcast
8:10 AM 55.4 °F 55.4 °F 100% 29.39 in 10.0 mi WSW 11.5 mph 17.3 mph N/A   Overcast
8:31 AM 55.4 °F 55.4 °F 100% 29.39 in 7.0 mi WSW 13.8 mph - N/A   Overcast
8:51 AM 57.2 °F 57.2 °F 100% 29.40 in 10.0 mi WSW 15.0 mph 20.7 mph N/A   Mostly Cloudy
9:11 AM 57.2 °F 57.2 °F 100% 29.40 in 10.0 mi WSW 11.5 mph 20.7 mph N/A   Overcast
9:31 AM 57.2 °F 57.2 °F 100% 29.40 in 10.0 mi WSW 13.8 mph 19.6 mph N/A   Overcast
9:51 AM 57.2 °F 57.2 °F 100% 29.41 in 10.0 mi WSW 16.1 mph - N/A   Overcast
10:11 AM 57.2 °F 57.2 °F 100% 29.41 in 10.0 mi WSW 15.0 mph 20.7 mph N/A   Overcast
10:31 AM 57.2 °F 55.4 °F 94% 29.41 in 10.0 mi WSW 18.4 mph 24.2 mph N/A   Overcast
10:51 AM 57.2 °F 55.4 °F 94% 29.42 in 10.0 mi WSW 17.3 mph 23.0 mph N/A Rain Light Rain
11:11 AM 57.2 °F 55.4 °F 94% 29.42 in 10.0 mi WSW 17.3 mph 26.5 mph N/A   Overcast
11:32 AM 57.2 °F 53.6 °F 88% 29.43 in 10.0 mi WSW 18.4 mph 33.4 mph N/A   Overcast
11:52 AM 57.2 °F 53.6 °F 88% 29.43 in 10.0 mi WSW 16.1 mph 29.9 mph N/A   Mostly Cloudy
12:12 PM 57.2 °F 51.8 °F 82% 29.43 in 10.0 mi West 15.0 mph 21.9 mph N/A   Mostly Cloudy
12:32 PM 57.2 °F 50.0 °F 77% 29.45 in 10.0 mi West 18.4 mph 27.6 mph N/A   Overcast
12:52 PM 59.0 °F 50.0 °F 72% 29.45 in 10.0 mi West 12.7 mph 25.3 mph N/A   Overcast
1:12 PM 55.4 °F 48.2 °F 77% 29.45 in 7.0 mi West 11.5 mph 23.0 mph N/A Rain Rain
1:52 PM 57.2 °F 44.6 °F 63% 29.46 in 10.0 mi West 15.0 mph 20.7 mph N/A   Overcast
2:12 PM 57.2 °F 42.8 °F 59% 29.46 in 10.0 mi West 19.6 mph 26.5 mph N/A   Overcast
2:33 PM 59.0 °F 42.8 °F 55% 29.46 in 10.0 mi West 23.0 mph 27.6 mph N/A   Overcast
3:13 PM 57.2 °F 42.8 °F 59% 29.47 in 10.0 mi West 19.6 mph 27.6 mph N/A   Overcast
3:33 PM 57.2 °F 41.0 °F 55% 29.48 in 10.0 mi West 23.0 mph 32.2 mph N/A   Overcast
3:53 PM 57.2 °F 42.8 °F 59% 29.48 in 10.0 mi West 20.7 mph 25.3 mph N/A   Overcast
4:13 PM 60.8 °F 39.2 °F 45% 29.49 in 10.0 mi West 23.0 mph 32.2 mph N/A   Overcast
4:33 PM 59.0 °F 39.2 °F 48% 29.49 in 10.0 mi West 16.1 mph 23.0 mph N/A   Overcast
4:53 PM 57.2 °F 41.0 °F 55% 29.50 in 10.0 mi West 17.3 mph 24.2 mph N/A   Overcast
5:14 PM 57.2 °F 41.0 °F 55% 29.50 in 10.0 mi West 15.0 mph 20.7 mph N/A   Overcast
5:34 PM 57.2 °F 39.2 °F 51% 29.51 in 10.0 mi West 20.7 mph 27.6 mph N/A   Overcast
5:54 PM 57.2 °F 39.2 °F 51% 29.52 in 10.0 mi West 18.4 mph 24.2 mph N/A   Overcast
6:14 PM 57.2 °F 39.2 °F 51% 29.52 in 10.0 mi West 15.0 mph 26.5 mph N/A   Overcast
6:34 PM 55.4 °F 41.0 °F 58% 29.53 in 10.0 mi West 15.0 mph 21.9 mph N/A   Scattered Clouds
6:54 PM 55.4 °F 41.0 °F 58% 29.53 in 10.0 mi West 8.1 mph - N/A   Mostly Cloudy
7:14 PM 55.4 °F 41.0 °F 58% 29.53 in 10.0 mi West 9.2 mph 17.3 mph N/A   Mostly Cloudy
7:34 PM 53.6 °F 41.0 °F 62% 29.54 in 10.0 mi West 6.9 mph - N/A   Mostly Cloudy
7:55 PM 55.4 °F 42.8 °F 63% 29.55 in 10.0 mi West 15.0 mph 24.2 mph N/A Rain Rain
8:15 PM 53.6 °F 42.8 °F 67% 29.54 in 10.0 mi West 8.1 mph - N/A   Overcast
8:35 PM 53.6 °F 42.8 °F 67% 29.55 in 10.0 mi West 12.7 mph - N/A Rain Light Rain
9:15 PM 53.6 °F 44.6 °F 72% 29.55 in 10.0 mi West 9.2 mph - N/A   Mostly Cloudy
9:30 PM 51.8 °F 46.4 °F 82% 29.55 in 10.0 mi West 10.4 mph - N/A Rain Light Rain
9:50 PM 51.8 °F 46.4 °F 82% 29.55 in 10.0 mi WSW 17.3 mph 23.0 mph N/A   Drizzle
10:10 PM 50.0 °F 48.2 °F 94% 29.56 in 10.0 mi West 15.0 mph - N/A Rain Light Rain
10:30 PM 50.0 °F 48.2 °F 94% 29.55 in 10.0 mi WSW 12.7 mph 18.4 mph N/A   Overcast
10:51 PM 48.2 °F 48.2 °F 100% 29.55 in 10.0 mi WSW 9.2 mph - N/A   Scattered Clouds
11:11 PM 48.2 °F 48.2 °F 100% 29.55 in 10.0 mi WSW 9.2 mph - N/A   Scattered Clouds
11:31 PM 48.2 °F 48.2 °F 100% 29.54 in 10.0 mi WSW 9.2 mph - N/A   Scattered Clouds
11:51 PM 48.2 °F 48.2 °F 100% 29.54 in 10.0 mi WSW 10.4 mph - N/A   Clear